Location: Famechon
(49.7599°N, 2.0615°E)
Time: 00:17:49
(UTC+00:00)

ATLAS CENTAUR R/B - Pass Details

Date: 03 February 2023
Orbit: 449 x 650 km, 64.7° (Epoch: 28 March)

Event Time Altitude Azimuth Distance (km) Brightness Sun altitude
Rises 18:56:33 0° 265° (W) 2,969 6.6 -20.6°
Reaches altitude 10° 18:59:23 10° 281° (W) 2,038 5.3 -21.1°
Maximum altitude 19:02:55 21° 331° (NNW) 1,403 3.7 -21.7°
Enters shadow 19:05:21 14° 11° (N) 1,698 3.7 -22.1°
